CAPE
0 0 0 0 0 0 0 0 0 0 0 0 0 0 0 0 0 0 0 0 0 0 0 0 0 0 0 0 0 0 0 0 0 0 0 0 0 0 0 0 0 0 0 0 0
0 0 0 0 0 0 0 0 0 0 0 0 0 0 0 0 0 0 0 0 0 0 0 0 0 0 0 0 0 0 0 0 0 0 0 0 0 0 0 0 0 0 0 0 0
0 0 0 0 0 0 0 0 0 0 0 0 0 0 0 0 0 0 0 0 0 0 0 0 0 0 0 0 0 0 0 0 0 0 0 0 0 0 0 0 0 0 0 0 0
0 0 0 0 0 0 0 0 0 0 0 0 0 0 0 0 0 0 0 0 0 0 0 0 0 0 0 0 0 0 0 0 0 0 0 0 0 0 0 0 0 0 0 0 0
0 0 0 0 0 0 0 0 0 0 0 0 0 0 0 0 0 0 0 0 0 0 0 0 0 0 0 0 0 0 0 0 0 0 0 0 0 0 0 0 0 0 0 0 0
0 0 0 0 0 0 0 0 0 0 0 0 0 0 0 0 0 0 0 0 0 0 0 0 0 0 0 0 0 0 0 0 0 0 0 0 0 0 0 0 0 0 0 0 0
0 0 0 0 0 0 0 0 0 0 0 0 0 0 0 0 0 0 0 0 0 0 0 0 0 0 0 0 0 0 0 0 0 0 0 0 0 0 0 0 0 0 0 0 0
0 0 0 0 0 0 0 0 0 0 0 0 0 0 0 0 0 0 0 0 0 0 0 0 0 0 0 0 0 0 0 0 0 0 0 0 0 0 0 0 0 0 0 0 0
0 0 0 0 0 0 0 0 0 0 0 0 0 0 0 0 0 0 0 0 0 0 0 0 0 0 0 0 0 0 0 0 0 0 0 0 0 0 0 0 0 0 0 0 0
0 0 0 0 0 0 0 0 0 0 0 0 0 0 0 0 0 0 0 0 0 0 0 0 0 0 0 0 0 0 0 0 0 0 0 0 0 0 0 0 0 0 0 0 0
0 0 0 0 0 0 0 0 0 0 0 0 0 0 0 0 0 0 0 0 0 0 0 0 0 0 0 0 0 0 0 0 0 0 0 0 0 0 0 0 0 0 0 0 0
0 0 0 0 0 0 0 0 0 0 0 0 0 0 0 0 0 0 0 0 0 0 0 0 0 0 0 0 0 0 0 0 0 0 0 0 0 0 0 0 0 0 0 0 0
0 0 0 0 0 0 0 0 0 0 0 0 0 0 0 0 0 0 0 0 0 0 0 0 0 0 0 0 0 0 0 0 0 0 0 0 0 0 0 0 0 0 0 0 0
0 0 0 0 0 0 0 0 0 0 0 0 0 0 0 0 0 0 0 0 0 0 0 0 0 0 0 0 0 0 0 0 0 0 0 0 0 0 0 0 0 0 0 0 0
0 0 0 0 0 0 0 0 0 0 0 0 0 0 0 0 0 0 0 0 0 0 0 0 0 0 0 0 0 0 0 0 0 0 0 0 0 0 0 0 0 0 0 0 0
0 0 0 0 0 0 0 0 0 0 0 0 0 0 0 0 0 0 0 0 0 0 0 0 0 0 0 0 0 0 0 0 0 0 0 0 0 0 0 0 0 0 0 0 0
0 0 0 0 0 0 0 0 0 0 0 0 0 0 0 0 0 0 0 0 0 0 0 0 0 0 0 0 0 0 0 0 0 0 0 0 0 0 0 0 0 0 0 0 0
0 0 0 0 0 0 0 0 0 0 0 0 0 0 0 0 0 0 0 0 0 0 0 0 0 0 0 0 0 0 0 0 0 0 0 0 0 0 0 0 0 0 0 0 0
0 0 0 0 0 0 0 0 0 0 0 0 0 0 0 0 0 0 0 0 0 0 0 0 0 0 0 0 0 0 0 0 0 0 0 0 0 0 0 0 0 0 0 0 0
0 0 0 0 0 0 0 0 0 0 0 0 0 0 0 0 0 0 0 0 0 0 0 0 0 0 0 0 0 0 0 0 0 0 0 0 0 0 0 0 0 0 0 0 0
0 0 0 0 0 0 0 0 0 0 0 0 0 0 0 0 0 0 0 0 0 0 0 0 0 0 0 0 0 0 0 0 0 0 0 0 0 0 0 0 0 0 0 0 0
0 0 0 0 0 0 0 0 0 0 0 0 0 0 0 0 0 0 0 0 0 0 0 0 0 0 0 0 0 0 0 0 0 0 0 0 0 0 0 0 0 0 0 0 0
0 0 0 0 0 0 0 0 0 0 0 0 0 0 0 0 0 0 0 0 0 0 0 0 0 0 0 0 0 0 0 0 0 0 0 0 0 0 0 0 0 0 0 0 0
0 0 0 0 0 0 0 0 0 0 0 0 0 0 0 0 0 0 0 0 0 0 0 0 0 0 0 0 0 0 0 0 0 0 0 0 0 0 0 0 0 0 0 0 0
0 0 0 0 0 0 0 0 0 0 0 0 0 0 0 0 0 0 0 0 0 0 0 0 0 0 0 0 0 0 0 0 0 0 0 0 0 0 0 0 0 0 0 0 0
0 0 0 0 0 0 0 0 0 0 0 0 0 0 0 0 0 0 0 0 0 0 0 0 0 0 0 0 0 0 0 0 0 0 0 0 0 0 0 0 0 0 0 0 0
0 0 0 0 0 0 0 0 0 0 0 0 0 0 0 0 0 0 0 0 0 0 0 0 0 0 0 0 0 0 0 0 0 0 0 0 0 0 0 0 0 0 0 0 0
CIN
0 0 0 0 0 0 0 0 0 0 0 0 0 0 0 0 0 0 0 0 0 0 0 0 0 0 0 0 0 0 0 0 0 0 0 0 0 0 0 0 0 0 0 0 0
0 0 0 0 0 0 0 0 0 0 0 0 0 0 0 0 0 0 0 0 0 0 0 0 0 0 0 0 0 0 0 0 0 0 0 0 0 0 0 0 0 0 0 0 0
0 0 0 0 0 0 0 0 0 0 0 0 0 0 0 0 0 0 0 0 0 0 0 0 0 0 0 0 0 0 0 0 0 0 0 0 0 0 0 0 0 0 0 0 0
0 0 0 0 0 0 0 0 0 0 0 0 0 0 0 0 0 0 0 0 0 0 0 0 0 0 0 0 0 0 0 0 0 0 0 0 0 0 0 0 0 0 0 0 0
0 0 0 0 0 0 0 0 0 0 0 0 0 0 0 0 0 0 0 0 0 0 0 0 0 0 0 0 0 0 0 0 0 0 0 0 0 0 0 0 0 0 0 0 0
0 0 0 0 0 0 0 0 0 0 0 0 0 0 0 0 0 0 0 0 0 0 0 0 0 0 0 0 0 0 0 0 0 0 0 0 0 0 0 0 0 0 0 0 0
0 0 0 0 0 0 0 0 0 0 0 0 0 0 0 0 0 0 0 0 0 0 0 0 0 0 0 0 0 0 0 0 0 0 0 0 0 0 0 0 0 0 0 0 0
0 0 0 0 0 0 0 0 0 0 0 0 0 0 0 0 0 0 0 0 0 0 0 0 0 0 0 0 0 0 0 0 0 0 0 0 0 0 0 0 0 0 0 0 0
0 0 0 0 0 0 0 0 0 0 0 0 0 0 0 0 0 0 0 0 0 0 0 0 0 0 0 0 0 0 0 0 0 0 0 0 0 0 0 0 0 0 0 0 0
0 0 0 0 0 0 0 0 0 0 0 0 0 0 0 0 0 0 0 0 0 0 0 0 0 0 0 0 0 0 0 0 0 0 0 0 0 0 0 0 0 0 0 0 0
0 0 0 0 0 0 0 0 0 0 0 0 0 0 0 0 0 0 0 0 0 0 0 0 0 0 0 0 0 0 0 0 0 0 0 0 0 0 0 0 0 0 0 0 0
0 0 0 0 0 0 0 0 0 0 0 0 0 0 0 0 0 0 0 0 0 0 0 0 0 0 0 0 0 0 0 0 0 0 0 0 0 0 0 0 0 0 0 0 0
0 0 0 0 0 0 0 0 0 0 0 0 0 0 0 0 0 0 0 0 0 0 0 0 0 0 0 0 0 0 0 0 0 0 0 0 0 0 0 0 0 0 0 0 0
0 0 0 0 0 0 0 0 0 0 0 0 0 0 0 0 0 0 0 0 0 0 0 0 0 0 0 0 0 0 0 0 0 0 0 0 0 0 0 0 0 0 0 0 0
0 0 0 0 0 0 0 0 0 0 0 0 0 0 0 0 0 0 0 0 0 0 0 0 0 0 0 0 0 0 0 0 0 0 0 0 0 0 0 0 0 0 0 0 0
0 0 0 0 0 0 0 0 0 0 0 0 0 0 0 0 0 0 0 0 0 0 0 0 0 0 0 0 0 0 0 0 0 0 0 0 0 0 0 0 0 0 0 0 0
0 0 0 0 0 0 0 0 0 0 0 0 0 0 0 0 0 0 0 0 0 0 0 0 0 0 0 0 0 0 0 0 0 0 0 0 0 0 0 0 0 0 0 0 0
0 0 0 0 0 0 0 0 0 0 0 0 0 0 0 0 0 0 0 0 0 0 0 0 0 0 0 0 0 0 0 0 0 0 0 0 0 0 0 0 0 0 0 0 0
0 0 0 0 0 0 0 0 0 0 0 0 0 0 0 0 0 0 0 0 0 0 0 0 0 0 0 0 0 0 0 0 0 0 0 0 0 0 0 0 0 0 0 0 0
0 0 0 0 0 0 0 0 0 0 0 0 0 0 0 0 0 0 0 0 0 0 0 0 0 0 0 0 0 0 0 0 0 0 0 0 0 0 0 0 0 0 0 0 0
0 0 0 0 0 0 0 0 0 0 0 0 0 0 0 0 0 0 0 0 0 0 0 0 0 0 0 0 0 0 0 0 0 0 0 0 0 0 0 0 0 0 0 0 0
0 0 0 0 0 0 0 0 0 0 0 0 0 0 0 0 0 0 0 0 0 0 0 0 0 0 0 0 0 0 0 0 0 0 0 0 0 0 0 0 0 0 0 0 0
0 0 0 0 0 0 0 0 0 0 0 0 0 0 0 0 0 0 0 0 0 0 0 0 0 0 0 0 0 0 0 0 0 0 0 0 0 0 0 0 0 0 0 0 0
0 0 0 0 0 0 0 0 0 0 0 0 0 0 0 0 0 0 0 0 0 0 0 0 0 0 0 0 0 0 0 0 0 0 0 0 0 0 0 0 0 0 0 0 0
0 0 0 0 0 0 0 0 0 0 0 0 0 0 0 0 0 0 0 0 0 0 0 0 0 0 0 0 0 0 0 0 0 0 0 0 0 0 0 0 0 0 0 0 0
0 0 0 0 0 0 0 0 0 0 0 0 0 0 0 0 0 0 0 0 0 0 0 0 0 0 0 0 0 0 0 0 0 0 0 0 0 0 0 0 0 0 0 0 0
0 0 0 0 0 0 0 0 0 0 0 0 0 0 0 0 0 0 0 0 0 0 0 0 0 0 0 0 0 0 0 0 0 0 0 0 0 0 0 0 0 0 0 0 0
Wind_Speed
9 9 8 9 8 9 10 10 12 15 14 14 14 14 15 14 16 17 19 21 21 19 21 19 18 20 17 17 16 15 15 15 15 16 16 20 19 20 19 16 18 19 17 15 16
8 8 7 7 7 9 10 12 16 20 19 18 16 15 17 17 18 20 22 23 23 22 19 18 18 19 17 17 17 16 16 15 15 16 16 18 18 17 17 17 17 17 18 17 17
8 7 6 6 7 10 12 16 20 22 22 21 20 15 13 9 16 10 18 18 18 20 18 18 17 18 19 19 19 18 17 16 17 18 19 20 20 18 15 17 14 12 13 16 17
7 6 5 6 8 12 16 22 23 23 23 22 18 12 11 17 19 8 13 11 10 10 18 19 20 19 20 20 19 19 19 17 18 21 22 22 19 18 19 18 15 14 15 16 19
7 6 6 7 9 13 20 24 25 25 23 21 15 11 19 21 6 7 9 7 6 16 20 20 22 19 19 19 20 20 19 19 19 21 26 26 24 18 18 16 16 16 17 19 20
7 6 6 8 12 19 24 25 25 24 23 21 13 17 23 21 8 7 7 7 11 3 24 24 20 19 20 19 20 19 20 21 23 22 26 29 23 18 17 15 18 18 20 22 23
8 7 7 10 16 22 24 26 26 25 22 15 13 21 20 19 7 8 10 16 8 19 24 23 20 19 18 19 21 19 18 19 25 23 23 26 26 26 19 17 19 21 22 23 25
8 7 8 11 18 22 24 23 22 21 18 17 17 22 24 11 4 13 10 15 7 24 21 24 25 21 19 17 19 19 20 20 22 28 23 27 20 27 24 19 21 23 24 26 28
8 7 8 11 19 23 24 23 22 24 23 22 21 22 21 7 16 11 11 13 8 23 23 25 26 24 20 19 20 26 18 19 19 26 29 28 24 33 23 19 22 25 27 29 30
9 8 9 11 20 21 22 24 25 18 15 18 24 19 5 7 4 11 7 18 22 19 21 23 23 28 27 25 16 12 16 18 21 28 33 31 30 29 25 23 24 28 30 33 35
9 9 9 10 22 21 21 22 22 27 23 29 23 24 9 7 6 17 10 11 21 22 15 23 25 24 24 25 21 19 21 25 27 27 34 28 26 26 26 27 30 32 36 38 39
11 10 10 11 20 20 20 20 21 24 27 25 24 19 2 14 10 20 20 16 13 13 15 20 26 22 19 28 26 23 22 24 24 30 33 25 25 24 28 31 33 36 40 42 44
12 12 11 16 19 19 21 24 23 22 24 22 11 6 15 18 21 19 23 22 24 25 27 23 18 22 26 32 37 28 27 29 31 34 26 21 26 24 26 34 36 40 41 45 47
11 11 10 19 20 22 23 22 20 18 21 23 18 17 18 18 20 26 25 21 22 20 20 23 24 25 31 34 36 31 32 34 35 32 31 24 35 28 29 38 41 45 47 50 52
11 10 11 15 20 20 21 19 18 17 20 19 22 19 20 22 18 24 24 23 25 27 19 20 24 27 31 34 36 31 40 39 33 28 27 28 35 33 33 41 44 48 51 52 53
11 11 10 13 16 18 19 18 17 19 22 19 20 22 21 24 22 23 23 23 22 24 27 22 23 25 29 32 32 41 40 32 28 28 37 30 40 42 38 41 45 49 54 56 57
11 12 11 13 15 17 18 17 19 23 17 18 19 20 22 22 23 23 25 29 27 26 28 24 24 26 31 34 32 43 42 39 38 41 41 33 45 36 34 38 45 52 57 59 61
10 11 13 14 15 16 17 18 22 18 19 18 18 19 21 22 23 25 23 26 31 29 27 31 29 31 33 33 33 36 39 37 44 47 49 42 39 34 33 39 47 53 60 63 63
8 12 14 15 14 14 16 21 19 18 17 18 18 18 20 21 21 22 24 25 29 32 30 31 28 25 32 35 33 32 38 30 36 37 44 39 34 28 47 59 64 62 63 59 55
10 11 15 16 13 14 17 18 18 18 18 18 19 18 19 23 22 23 25 26 27 29 25 28 29 27 29 29 36 33 32 37 40 48 54 46 46 49 56 65 62 61 58 49 44
11 11 16 13 13 15 16 18 18 20 18 19 18 18 19 21 22 23 25 24 26 28 27 28 27 30 29 32 34 36 35 35 33 35 46 54 50 41 55 56 53 52 42 35 29
10 11 16 11 13 15 16 17 18 19 21 20 19 19 19 21 22 22 24 25 28 26 28 28 26 36 32 27 30 32 34 35 42 43 38 44 49 40 51 49 47 40 36 32 29
9 11 15 11 10 12 14 17 19 19 20 19 18 19 19 20 22 22 23 24 28 27 29 29 32 37 35 29 30 35 35 35 34 35 43 51 49 45 44 46 41 38 32 29 30
8 10 13 12 11 11 13 16 17 20 20 20 18 17 18 21 23 21 24 24 26 27 29 24 29 33 37 35 32 35 34 35 37 43 45 45 52 49 45 47 38 30 30 31 33
12 11 11 9 11 11 13 14 16 18 19 20 19 20 19 20 22 23 24 24 25 26 26 27 31 33 33 31 33 33 34 36 39 38 45 48 49 43 42 41 34 33 32 34 35
9 7 8 7 9 11 14 14 15 17 19 20 20 19 18 19 21 23 24 25 25 26 27 28 32 34 34 31 33 33 34 37 37 38 42 44 45 33 37 35 35 34 35 37 39
8 5 6 10 10 11 12 12 15 16 20 19 18 20 22 20 21 22 23 23 23 26 27 29 33 35 39 37 33 37 36 39 39 38 41 45 39 42 38 33 36 35 34 40 40
Wind_Direction
264 261 256 256 235 208 200 205 196 18 29 33 27 14 350 332 1 4 352 332 324 280 341 8 23 358 33 29 30 31 11 7 6 4 2 357 359 4 9 7 358 357 4 15 16
266 264 256 238 216 191 178 158 137 98 87 81 67 25 344 335 5 0 344 321 315 324 18 11 12 12 30 28 29 26 25 26 29 23 13 6 5 6 4 8 7 11 11 15 12
268 259 246 217 193 165 145 125 115 105 103 105 112 129 238 253 60 278 300 299 297 331 49 50 58 52 44 48 41 45 39 52 40 29 17 8 2 8 12 358 5 14 20 12 6
258 249 222 200 169 146 127 100 99 104 109 109 119 165 179 131 51 180 282 275 264 267 78 43 58 63 52 47 53 45 45 47 40 26 19 13 13 9 4 4 24 22 12 3 355
252 237 227 198 169 143 114 86 87 95 95 99 139 166 115 36 18 220 269 254 237 341 9 64 38 69 56 60 53 46 49 43 36 28 8 3 2 9 14 18 17 13 4 357 354
254 244 216 182 150 121 97 86 79 82 86 111 160 139 59 32 160 254 232 191 311 299 32 39 70 80 55 45 41 50 44 33 17 17 7 4 9 11 8 12 3 358 352 348 345
253 242 206 173 136 109 97 92 84 85 113 151 156 114 24 33 167 275 283 117 165 92 38 51 59 44 60 53 44 47 42 32 16 19 14 5 1 1 1 360 354 350 349 350 347
259 239 204 171 134 108 99 97 102 103 131 133 130 99 69 145 224 324 297 112 286 43 62 34 29 56 56 69 48 39 35 23 18 7 7 1 351 349 351 351 350 350 348 347 347
256 240 207 180 133 108 95 92 99 73 78 91 78 79 90 223 333 301 302 300 30 41 9 30 42 47 45 53 41 19 28 22 18 11 0 359 347 346 355 354 349 349 346 343 341
258 240 215 191 133 119 105 94 39 84 141 101 56 97 195 196 189 290 258 334 41 58 42 20 53 46 12 41 55 39 26 14 3 357 356 353 351 357 2 359 352 346 343 340 338
255 250 237 211 116 113 108 102 88 65 26 50 102 93 172 182 119 329 277 298 22 20 108 63 35 45 45 32 30 20 10 360 357 357 355 356 354 357 359 357 348 345 342 340 338
268 263 238 219 81 98 93 89 97 102 54 38 86 64 202 107 302 333 335 23 350 107 102 63 46 40 39 12 18 18 9 359 357 349 348 349 353 359 358 355 351 348 344 341 339
294 278 244 150 103 79 83 95 110 105 75 48 5 290 313 336 357 325 345 41 22 27 27 54 49 25 12 355 348 1 359 353 344 344 350 350 341 345 353 351 349 348 346 343 339
289 299 290 75 63 95 92 107 103 94 53 356 1 349 318 14 350 347 352 27 25 58 47 33 20 13 359 354 351 355 353 345 341 344 343 347 335 338 343 345 344 343 342 339 337
289 299 332 45 78 84 103 101 93 85 33 40 31 32 342 23 326 334 354 20 30 20 38 34 23 15 5 358 353 353 346 344 346 348 347 343 335 337 343 337 340 340 337 337 337
305 307 345 356 33 84 98 86 77 62 35 52 37 26 31 6 357 343 2 17 24 19 19 28 19 13 6 0 358 348 351 353 356 358 345 349 343 336 339 340 339 339 338 336 335
306 337 346 354 37 79 85 76 58 38 70 53 41 36 27 356 359 354 2 7 17 15 13 19 20 11 7 360 0 356 358 355 352 349 344 346 337 341 348 347 343 341 339 338 337
310 339 352 2 32 63 67 49 26 58 52 64 52 33 24 4 359 359 7 12 13 17 13 8 6 9 6 6 1 4 7 0 347 343 336 340 342 345 351 348 345 341 338 337 338
330 325 344 321 8 32 37 22 39 53 57 50 49 38 16 6 5 5 4 8 10 11 11 7 9 15 12 9 6 5 2 2 350 346 343 347 351 345 344 344 342 340 338 341 345
323 330 334 319 359 15 22 32 39 47 48 49 36 34 19 356 2 3 1 5 9 12 19 11 5 12 9 9 13 12 4 357 357 347 343 345 344 341 345 344 346 346 346 350 352
318 316 314 309 342 3 22 30 42 39 46 42 46 35 17 2 2 1 1 7 11 9 15 14 10 5 7 7 4 1 3 2 357 351 346 343 345 349 349 349 350 351 356 356 346
313 303 304 319 349 6 19 36 42 38 36 43 50 35 21 6 4 4 4 5 10 15 10 12 12 359 6 16 16 11 3 1 354 351 347 344 344 353 350 351 353 355 355 351 346
310 310 305 315 351 12 28 29 32 34 32 37 39 39 25 8 2 3 4 9 11 14 10 10 5 359 1 3 5 2 3 3 359 357 350 348 345 347 351 352 355 354 348 342 343
311 304 318 339 355 34 38 21 30 32 35 40 46 37 22 7 1 3 0 5 9 9 12 18 11 4 356 354 358 358 1 3 2 354 350 347 342 348 353 353 354 342 341 343 346
301 305 305 326 341 16 15 25 26 25 32 34 37 31 18 12 0 358 358 2 7 8 11 12 4 2 359 359 1 2 3 2 359 357 352 347 345 348 354 353 350 344 342 343 342
300 310 323 350 352 4 357 11 25 29 27 24 29 32 30 14 2 357 358 358 359 5 6 9 1 1 0 3 1 1 5 2 360 357 351 348 349 358 352 354 353 349 349 348 346
299 306 334 321 337 352 359 20 22 31 24 35 46 32 19 17 10 6 7 7 6 3 4 5 1 360 357 360 3 360 3 1 357 355 352 352 356 355 354 353 353 348 348 351 344